Find Praetorian SDA-618

NORAD ID: 65581 Int'l Des: 2025-203 Owner: SDA Country: US operational
LEOCIRCULARPOLAR

リアルタイム位置

3D地球を読み込み中...

Praetorian SDA-618について

説明を読み込み中...

次回通過

Passes for default location (London). Set your location on the main map for personalized predictions.

高度履歴

Loading altitude history...

軌道要素

1 65581U 25203S 26106.63380411 .00000185 00000-0 15341-3 0 9999
2 65581 81.3011 67.5462 0010146 7.2999 352.8304 13.84765149 30195
Epoch: Apr 16, 2026 • Age: 19 hours

現在のステータス

高度 976.5 km
速度 7.36 km/s
衛星直下点 -78.95°S, 54.81°W
打ち上げ日 Sep 10, 2025
運用期間 0.5 years
タイプ other

技術仕様

分類 Payload
質量 300.00 kg
乾燥質量 300.00 kg
総質量 300.00 kg
長さ 1.00 m
直径 0.60 m
スパン 2.00 m
形状 Box + panels
製造者 YORKSS
バスタイプ S-Class
フェーズステータス In Orbit
所有者/国 SDA/US

Most Searched